| time (UTC) | temp F | wind direction | speed knots | gust knots | rain 1hr in | rain 24hr in | rain mn in | humidity % | barometer mb |
| 20260503010003 | 48 | 0 | 0.0 | 0.0 | 0.00 | 0.00 | 0.00 | 74 | 1016.6 |
| 20260503005503 | 48 | 0 | 0.0 | 0.0 | 0.00 | 0.00 | 0.00 | 74 | 1016.6 |
| 20260503005003 | 48 | 0 | 0.0 | 0.0 | 0.00 | 0.00 | 0.00 | 74 | 1016.6 |
| 20260503004716 | 49 | 0 | 0.0 | 0.0 | 0.00 | 0.00 | 0.00 | 74 | 1016.5 |
| 20260503004003 | 49 | 0 | 0.0 | 0.0 | 0.00 | 0.00 | 0.00 | 73 | 1016.4 |
| 20260503003503 | 49 | 0 | 0.0 | 0.0 | 0.00 | 0.00 | 0.00 | 73 | 1016.5 |
| 20260503003003 | 50 | 0 | 0.0 | 0.0 | 0.00 | 0.00 | 0.00 | 72 | 1016.4 |
| 20260503002503 | 50 | 0 | 0.0 | 0.0 | 0.00 | 0.00 | 0.00 | 71 | 1016.4 |
| 20260503002003 | 50 | 0 | 0.0 | 0.0 | 0.00 | 0.00 | 0.00 | 71 | 1016.3 |
| 20260503001503 | 51 | 0 | 0.0 | 0.0 | 0.00 | 0.00 | 0.00 | 70 | 1016.2 |
| 20260503001003 | 51 | 0 | 0.0 | 0.0 | 0.00 | 0.00 | 0.00 | 70 | 1016.2 |
| 20260503000503 | 51 | 0 | 0.0 | 0.0 | 0.00 | 0.00 | 0.00 | 69 | 1016.2 |
| 20260503000218 | 52 | 0 | 0.0 | 0.0 | 0.00 | 0.00 | 0.00 | 67 | 1016.2 |
| 20260502235718 | 52 | 0 | 0.0 | 0.0 | 0.00 | 0.00 | 0.00 | 66 | 1016.1 |
| 20260502235003 | 52 | 0 | 0.0 | 0.0 | 0.00 | 0.00 | 0.00 | 65 | 1016.1 |
| 20260502234718 | 52 | 0 | 0.0 | 0.0 | 0.00 | 0.00 | 0.00 | 65 | 1016.0 |
| 20260502234003 | 53 | 0 | 0.0 | 0.0 | 0.00 | 0.00 | 0.00 | 63 | 1016.0 |
| 20260502233503 | 53 | 0 | 0.0 | 0.0 | 0.00 | 0.00 | 0.00 | 64 | 1016.0 |
| 20260502233003 | 53 | 0 | 0.0 | 0.0 | 0.00 | 0.00 | 0.00 | 62 | 1016.0 |
| 20260502232718 | 53 | 0 | 0.0 | 0.0 | 0.00 | 0.00 | 0.00 | 63 | 1016.1 |
| 20260502232003 | 53 | 210 | 0.0 | 1.7 | 0.00 | 0.00 | 0.00 | 62 | 1016.0 |
| 20260502231503 | 53 | 210 | 0.0 | 1.7 | 0.00 | 0.00 | 0.00 | 61 | 1016.0 |
| 20260502231003 | 53 | 0 | 0.0 | 0.0 | 0.00 | 0.00 | 0.00 | 61 | 1016.0 |
| 20260502230503 | 53 | 0 | 0.0 | 0.0 | 0.00 | 0.00 | 0.00 | 62 | 1016.0 |
| 20260502230003 | 53 | 0 | 0.0 | 0.0 | 0.00 | 0.00 | 0.00 | 62 | 1016.0 |
| 20260502225503 | 53 | 0 | 0.0 | 0.0 | 0.00 | 0.00 | 0.00 | 61 | 1015.9 |
| 20260502225003 | 53 | 210 | 0.0 | 3.5 | 0.00 | 0.00 | 0.00 | 61 | 1015.9 |
| 20260502224503 | 53 | 210 | 0.0 | 3.5 | 0.00 | 0.00 | 0.00 | 61 | 1015.9 |
| 20260502224003 | 53 | 210 | 0.0 | 3.5 | 0.00 | 0.00 | 0.00 | 60 | 1016.0 |
| 20260502223503 | 54 | 210 | 0.0 | 3.5 | 0.00 | 0.00 | 0.00 | 60 | 1016.1 |
| 20260502223003 | 54 | 210 | 0.0 | 5.2 | 0.00 | 0.00 | 0.00 | 61 | 1016.0 |
| 20260502222717 | 54 | 210 | 0.0 | 5.2 | 0.00 | 0.00 | 0.00 | 60 | 1016.0 |
| 20260502222003 | 54 | 210 | 0.0 | 7.0 | 0.00 | 0.00 | 0.00 | 60 | 1015.9 |
| 20260502221717 | 54 | 210 | 1.7 | 7.0 | 0.00 | 0.00 | 0.00 | 60 | 1016.0 |
| 20260502221216 | 54 | 210 | 0.0 | 3.5 | 0.00 | 0.00 | 0.00 | 63 | 1016.0 |
| 20260502220718 | 54 | 210 | 0.0 | 3.5 | 0.00 | 0.00 | 0.00 | 63 | 1016.1 |
| 20260502220003 | 54 | 210 | 0.0 | 7.0 | 0.00 | 0.00 | 0.00 | 63 | 1016.0 |
| 20260502215503 | 54 | 0 | 0.0 | 0.0 | 0.00 | 0.00 | 0.00 | 67 | 1016.0 |
| 20260502215003 | 53 | 210 | 0.0 | 1.7 | 0.00 | 0.00 | 0.00 | 66 | 1015.9 |
| 20260502214503 | 53 | 210 | 0.0 | 3.5 | 0.00 | 0.00 | 0.00 | 68 | 1015.9 |
| 20260502214003 | 52 | 210 | 0.0 | 3.5 | 0.00 | 0.00 | 0.00 | 69 | 1015.9 |
| 20260502213503 | 52 | 210 | 0.0 | 1.7 | 0.00 | 0.00 | 0.00 | 70 | 1016.0 |
| 20260502213003 | 52 | 0 | 0.0 | 0.0 | 0.00 | 0.00 | 0.00 | 69 | 1016.0 |
| 20260502212503 | 52 | 0 | 0.0 | 0.0 | 0.00 | 0.00 | 0.00 | 69 | 1015.9 |
| 20260502212003 | 52 | 0 | 0.0 | 0.0 | 0.00 | 0.00 | 0.00 | 67 | 1016.0 |
| 20260502211717 | 52 | 0 | 0.0 | 0.0 | 0.00 | 0.00 | 0.00 | 67 | 1016.0 |
| 20260502211003 | 53 | 210 | 0.0 | 3.5 | 0.00 | 0.00 | 0.00 | 65 | 1016.0 |
| 20260502210503 | 53 | 210 | 0.0 | 3.5 | 0.00 | 0.00 | 0.00 | 63 | 1015.9 |
| 20260502210218 | 53 | 210 | 0.0 | 3.5 | 0.00 | 0.00 | 0.00 | 63 | 1015.9 |
| 20260502205503 | 54 | 210 | 0.0 | 1.7 | 0.00 | 0.00 | 0.00 | 63 | 1016.0 |
| 20260502205218 | 54 | 210 | 0.0 | 1.7 | 0.00 | 0.00 | 0.00 | 62 | 1016.0 |
| 20260502204503 | 54 | 210 | 0.0 | 1.7 | 0.00 | 0.00 | 0.00 | 61 | 1016.0 |
| 20260502204218 | 54 | 210 | 0.0 | 3.5 | 0.00 | 0.00 | 0.00 | 61 | 1016.0 |
| 20260502203503 | 55 | 210 | 0.0 | 3.5 | 0.00 | 0.00 | 0.00 | 60 | 1016.0 |
| 20260502203003 | 55 | 210 | 0.0 | 3.5 | 0.00 | 0.00 | 0.00 | 59 | 1016.0 |
| 20260502202503 | 56 | 210 | 1.7 | 5.2 | 0.00 | 0.00 | 0.00 | 58 | 1016.0 |
| 20260502202003 | 56 | 210 | 1.7 | 5.2 | 0.00 | 0.00 | 0.00 | 55 | 1016.0 |
| 20260502201503 | 57 | 210 | 0.0 | 3.5 | 0.00 | 0.00 | 0.00 | 55 | 1016.0 |
| 20260502201003 | 58 | 210 | 0.0 | 1.7 | 0.00 | 0.00 | 0.00 | 58 | 1016.1 |
| 20260502200503 | 58 | 210 | 0.0 | 1.7 | 0.00 | 0.00 | 0.00 | 58 | 1016.1 |
| 20260502200003 | 57 | 210 | 1.7 | 5.2 | 0.00 | 0.00 | 0.00 | 55 | 1016.0 |
| 20260502195503 | 57 | 210 | 1.7 | 5.2 | 0.00 | 0.00 | 0.00 | 56 | 1016.1 |
| 20260502195003 | 56 | 210 | 0.0 | 5.2 | 0.00 | 0.00 | 0.00 | 58 | 1016.3 |
| 20260502194503 | 56 | 210 | 1.7 | 5.2 | 0.00 | 0.00 | 0.00 | 57 | 1016.3 |
| 20260502194003 | 56 | 210 | 0.0 | 3.5 | 0.00 | 0.00 | 0.00 | 57 | 1016.2 |
| 20260502193503 | 55 | 210 | 0.0 | 1.7 | 0.00 | 0.00 | 0.00 | 60 | 1016.2 |
| 20260502193218 | 55 | 210 | 0.0 | 3.5 | 0.00 | 0.00 | 0.00 | 59 | 1016.3 |
| 20260502192717 | 55 | 210 | 0.0 | 3.5 | 0.00 | 0.00 | 0.00 | 60 | 1016.4 |
| 20260502192003 | 54 | 210 | 1.7 | 3.5 | 0.00 | 0.00 | 0.00 | 62 | 1016.5 |
| 20260502191503 | 53 | 210 | 1.7 | 3.5 | 0.00 | 0.00 | 0.00 | 63 | 1016.5 |
| 20260502191217 | 53 | 210 | 1.7 | 3.5 | 0.00 | 0.00 | 0.00 | 63 | 1016.5 |
| 20260502190503 | 53 | 210 | 0.0 | 1.7 | 0.00 | 0.00 | 0.00 | 63 | 1016.6 |
| 20260502190004 | 53 | 210 | 1.7 | 3.5 | 0.00 | 0.00 | 0.00 | 63 | 1016.6 |
| 20260502185503 | 53 | 210 | 1.7 | 3.5 | 0.00 | 0.00 | 0.00 | 63 | 1016.7 |
| 20260502185217 | 53 | 210 | 1.7 | 3.5 | 0.00 | 0.00 | 0.00 | 62 | 1016.7 |
| 20260502184503 | 53 | 210 | 1.7 | 3.5 | 0.00 | 0.00 | 0.00 | 65 | 1016.7 |
| 20260502184003 | 53 | 210 | 1.7 | 3.5 | 0.00 | 0.00 | 0.00 | 64 | 1016.7 |
| 20260502183718 | 53 | 210 | 1.7 | 3.5 | 0.00 | 0.00 | 0.00 | 64 | 1016.7 |
| 20260502183003 | 53 | 210 | 1.7 | 3.5 | 0.00 | 0.00 | 0.00 | 63 | 1016.6 |
| 20260502182718 | 53 | 210 | 1.7 | 3.5 | 0.00 | 0.00 | 0.00 | 63 | 1016.7 |
| 20260502182003 | 54 | 210 | 0.0 | 3.5 | 0.00 | 0.00 | 0.00 | 62 | 1016.8 |
| 20260502181503 | 54 | 210 | 0.0 | 3.5 | 0.00 | 0.00 | 0.00 | 63 | 1016.7 |
| 20260502181003 | 54 | 210 | 0.0 | 3.5 | 0.00 | 0.00 | 0.00 | 64 | 1016.7 |
| 20260502180503 | 54 | 210 | 0.0 | 3.5 | 0.00 | 0.00 | 0.00 | 63 | 1016.8 |
| 20260502180217 | 54 | 210 | 0.0 | 3.5 | 0.00 | 0.00 | 0.00 | 63 | 1016.7 |
| 20260502170503 | 55 | 210 | 0.0 | 1.7 | 0.00 | 0.00 | 0.00 | 60 | 1017.0 |
| 20260502164003 | 56 | 210 | 0.0 | 1.7 | 0.00 | 0.00 | 0.00 | 58 | 1017.1 |
| 20260502163503 | 56 | 210 | 0.0 | 3.5 | 0.00 | 0.00 | 0.00 | 57 | 1017.1 |
| 20260502163003 | 57 | 210 | 0.0 | 3.5 | 0.00 | 0.00 | 0.00 | 60 | 1017.1 |
| 20260502162503 | 56 | 210 | 0.0 | 1.7 | 0.00 | 0.00 | 0.00 | 58 | 1017.2 |
| 20260502162003 | 56 | 210 | 0.0 | 3.5 | 0.00 | 0.00 | 0.00 | 57 | 1017.3 |
| 20260502161503 | 56 | 210 | 0.0 | 3.5 | 0.00 | 0.00 | 0.00 | 59 | 1017.3 |
| 20260502161003 | 56 | 210 | 0.0 | 3.5 | 0.00 | 0.00 | 0.00 | 58 | 1017.3 |
| 20260502160503 | 56 | 210 | 0.0 | 3.5 | 0.00 | 0.00 | 0.00 | 60 | 1017.3 |
| 20260502151503 | 57 | 210 | 0.0 | 1.7 | 0.00 | 0.00 | 0.00 | 59 | 1017.2 |
| 20260502151003 | 56 | 210 | 0.0 | 3.5 | 0.00 | 0.01 | 0.00 | 63 | 1017.2 |
| 20260502150503 | 56 | 210 | 0.0 | 3.5 | 0.00 | 0.01 | 0.00 | 64 | 1017.2 |
| 20260502130718 | 46 | 210 | 1.7 | 5.2 | 0.00 | 0.01 | 0.00 | 78 | 1016.8 |
| 20260502130217 | 46 | 210 | 1.7 | 5.2 | 0.00 | 0.01 | 0.00 | 78 | 1016.8 |
| 20260502123503 | 46 | 210 | 0.0 | 5.2 | 0.00 | 0.01 | 0.00 | 82 | 1016.6 |
| 20260502123003 | 45 | 210 | 1.7 | 5.2 | 0.00 | 0.01 | 0.00 | 84 | 1016.6 |
| 20260502122503 | 44 | 210 | 1.7 | 3.5 | 0.00 | 0.01 | 0.00 | 85 | 1016.4 |
| 20260502122003 | 44 | 210 | 0.0 | 3.5 | 0.00 | 0.01 | 0.00 | 86 | 1016.4 |
| 20260502121503 | 43 | 210 | 0.0 | 3.5 | 0.00 | 0.01 | 0.00 | 87 | 1016.4 |
| 20260502121003 | 43 | 210 | 0.0 | 3.5 | 0.00 | 0.01 | 0.00 | 88 | 1016.4 |
| 20260502120503 | 43 | 210 | 0.0 | 3.5 | 0.00 | 0.01 | 0.00 | 90 | 1016.5 |
| 20260502120217 | 43 | 210 | 0.0 | 3.5 | 0.00 | 0.01 | 0.00 | 93 | 1016.6 |
| 20260502115503 | 41 | 0 | 0.0 | 0.0 | 0.00 | 0.01 | 0.00 | 95 | 1016.6 |
| 20260502115003 | 40 | 0 | 0.0 | 0.0 | 0.00 | 0.01 | 0.00 | 95 | 1016.6 |
| 20260502114503 | 39 | 0 | 0.0 | 0.0 | 0.00 | 0.01 | 0.00 | 95 | 1016.7 |
| 20260502114003 | 39 | 0 | 0.0 | 0.0 | 0.00 | 0.01 | 0.00 | 95 | 1016.6 |
| 20260502113503 | 38 | 0 | 0.0 | 0.0 | 0.00 | 0.01 | 0.00 | 94 | 1016.3 |
| 20260502113003 | 38 | 0 | 0.0 | 0.0 | 0.00 | 0.01 | 0.00 | 94 | 1016.3 |
| 20260502112503 | 38 | 0 | 0.0 | 0.0 | 0.00 | 0.01 | 0.00 | 94 | 1016.5 |
| 20260502112003 | 38 | 0 | 0.0 | 0.0 | 0.00 | 0.01 | 0.00 | 94 | 1016.7 |
| 20260502111503 | 38 | 0 | 0.0 | 0.0 | 0.00 | 0.01 | 0.00 | 94 | 1016.6 |
| 20260502111216 | 38 | 0 | 0.0 | 0.0 | 0.00 | 0.01 | 0.00 | 94 | 1016.5 |
| 20260502110503 | 38 | 0 | 0.0 | 0.0 | 0.00 | 0.01 | 0.00 | 94 | 1016.3 |
| 20260502110003 | 38 | 0 | 0.0 | 0.0 | 0.00 | 0.01 | 0.00 | 94 | 1016.2 |
| 20260502105503 | 38 | 0 | 0.0 | 0.0 | 0.00 | 0.01 | 0.00 | 94 | 1016.2 |
| 20260502105003 | 38 | 0 | 0.0 | 0.0 | 0.00 | 0.01 | 0.00 | 94 | 1016.1 |
| 20260502104503 | 38 | 0 | 0.0 | 0.0 | 0.00 | 0.01 | 0.00 | 94 | 1016.1 |
| 20260502104003 | 38 | 0 | 0.0 | 0.0 | 0.00 | 0.01 | 0.00 | 94 | 1016.0 |
| 20260502103503 | 38 | 0 | 0.0 | 0.0 | 0.00 | 0.01 | 0.00 | 94 | 1016.0 |
| 20260502103218 | 38 | 0 | 0.0 | 0.0 | 0.00 | 0.01 | 0.00 | 94 | 1015.9 |
| 20260502102503 | 38 | 0 | 0.0 | 0.0 | 0.00 | 0.01 | 0.00 | 94 | 1015.8 |
| 20260502102003 | 38 | 0 | 0.0 | 0.0 | 0.00 | 0.01 | 0.00 | 94 | 1015.9 |
| 20260502101503 | 37 | 0 | 0.0 | 0.0 | 0.00 | 0.01 | 0.00 | 94 | 1016.0 |
| 20260502101003 | 37 | 0 | 0.0 | 0.0 | 0.00 | 0.01 | 0.00 | 94 | 1016.0 |
| 20260502100503 | 37 | 0 | 0.0 | 0.0 | 0.00 | 0.01 | 0.00 | 94 | 1016.0 |
| 20260502100218 | 37 | 0 | 0.0 | 0.0 | 0.00 | 0.01 | 0.00 | 94 | 1016.0 |
| 20260502091503 | 37 | 0 | 0.0 | 0.0 | 0.00 | 0.01 | 0.00 | 93 | 1015.8 |
| 20260502091003 | 37 | 0 | 0.0 | 0.0 | 0.00 | 0.01 | 0.00 | 93 | 1016.0 |
| 20260502090503 | 37 | 0 | 0.0 | 0.0 | 0.00 | 0.01 | 0.00 | 93 | 1016.0 |
| 20260502071503 | 38 | 0 | 0.0 | 0.0 | 0.00 | 0.01 | 0.00 | 92 | 1016.0 |
| 20260502071003 | 38 | 0 | 0.0 | 0.0 | 0.00 | 0.01 | 0.00 | 92 | 1015.9 |
| 20260502070503 | 38 | 0 | 0.0 | 0.0 | 0.00 | 0.01 | 0.00 | 91 | 1015.9 |
| 20260502070003 | 38 | 0 | 0.0 | 0.0 | 0.00 | 0.01 | 0.00 | 91 | 1015.8 |
| 20260502065503 | 38 | 0 | 0.0 | 0.0 | 0.00 | 0.01 | 0.00 | 91 | 1015.9 |
| 20260502065003 | 39 | 0 | 0.0 | 0.0 | 0.00 | 0.01 | 0.00 | 91 | 1015.9 |
| 20260502064503 | 39 | 0 | 0.0 | 0.0 | 0.00 | 0.01 | 0.00 | 91 | 1015.9 |
| 20260502064003 | 39 | 0 | 0.0 | 0.0 | 0.00 | 0.01 | 0.00 | 91 | 1016.0 |
| 20260502063503 | 39 | 0 | 0.0 | 0.0 | 0.00 | 0.01 | 0.00 | 91 | 1016.0 |
| 20260502063003 | 39 | 0 | 0.0 | 0.0 | 0.00 | 0.01 | 0.00 | 91 | 1016.0 |
| 20260502062503 | 39 | 0 | 0.0 | 0.0 | 0.00 | 0.01 | 0.00 | 90 | 1016.0 |
| 20260502062216 | 39 | 0 | 0.0 | 0.0 | 0.00 | 0.01 | 0.00 | 90 | 1015.9 |
| 20260502061503 | 39 | 0 | 0.0 | 0.0 | 0.00 | 0.01 | 0.00 | 90 | 1016.0 |
| 20260502061003 | 39 | 0 | 0.0 | 0.0 | 0.00 | 0.01 | 0.00 | 90 | 1016.2 |
| 20260502060503 | 39 | 0 | 0.0 | 0.0 | 0.00 | 0.01 | 0.00 | 90 | 1016.2 |
| 20260502060003 | 39 | 0 | 0.0 | 0.0 | 0.00 | 0.01 | 0.00 | 90 | 1016.1 |
| 20260502055503 | 39 | 0 | 0.0 | 0.0 | 0.00 | 0.01 | 0.00 | 89 | 1016.2 |
| 20260502055003 | 39 | 0 | 0.0 | 0.0 | 0.00 | 0.01 | 0.00 | 89 | 1016.2 |
| 20260502054503 | 39 | 0 | 0.0 | 0.0 | 0.00 | 0.01 | 0.00 | 89 | 1016.3 |
| 20260502054216 | 39 | 0 | 0.0 | 0.0 | 0.00 | 0.01 | 0.00 | 89 | 1016.4 |
| 20260502053503 | 40 | 0 | 0.0 | 0.0 | 0.00 | 0.01 | 0.00 | 89 | 1016.4 |
| 20260502053003 | 40 | 0 | 0.0 | 0.0 | 0.00 | 0.01 | 0.00 | 89 | 1016.4 |
| 20260502052503 | 40 | 0 | 0.0 | 0.0 | 0.00 | 0.01 | 0.00 | 89 | 1016.5 |
| 20260502052218 | 40 | 0 | 0.0 | 0.0 | 0.00 | 0.01 | 0.00 | 89 | 1016.5 |
| 20260502051503 | 40 | 0 | 0.0 | 0.0 | 0.00 | 0.01 | 0.00 | 88 | 1016.4 |
| 20260502051003 | 40 | 0 | 0.0 | 0.0 | 0.00 | 0.01 | 0.00 | 88 | 1016.5 |
| 20260502050717 | 40 | 0 | 0.0 | 0.0 | 0.00 | 0.01 | 0.00 | 88 | 1016.5 |
| 20260502050003 | 40 | 0 | 0.0 | 0.0 | 0.00 | 0.01 | 0.00 | 87 | 1016.5 |
| 20260502045503 | 40 | 0 | 0.0 | 0.0 | 0.00 | 0.01 | 0.00 | 87 | 1016.5 |
| 20260502045003 | 41 | 0 | 0.0 | 0.0 | 0.00 | 0.01 | 0.00 | 86 | 1016.5 |
| 20260502044717 | 41 | 0 | 0.0 | 0.0 | 0.00 | 0.01 | 0.00 | 86 | 1016.4 |
| 20260502044003 | 41 | 0 | 0.0 | 0.0 | 0.00 | 0.01 | 0.00 | 86 | 1016.4 |
| 20260502043503 | 42 | 0 | 0.0 | 0.0 | 0.00 | 0.01 | 0.00 | 86 | 1016.4 |
| 20260502043218 | 42 | 0 | 0.0 | 0.0 | 0.00 | 0.01 | 0.00 | 86 | 1016.3 |
| 20260502042503 | 42 | 0 | 0.0 | 0.0 | 0.00 | 0.01 | 0.00 | 86 | 1016.4 |
| 20260502042003 | 42 | 0 | 0.0 | 0.0 | 0.00 | 0.01 | 0.00 | 86 | 1016.5 |
| 20260502041503 | 42 | 0 | 0.0 | 0.0 | 0.00 | 0.01 | 0.00 | 86 | 1016.4 |
| 20260502041003 | 42 | 0 | 0.0 | 0.0 | 0.00 | 0.01 | 0.00 | 86 | 1016.3 |
| 20260502040503 | 42 | 0 | 0.0 | 0.0 | 0.00 | 0.01 | 0.00 | 86 | 1016.4 |
| 20260502040003 | 42 | 0 | 0.0 | 0.0 | 0.00 | 0.01 | 0.00 | 85 | 1016.4 |
| 20260502035503 | 42 | 0 | 0.0 | 0.0 | 0.00 | 0.01 | 0.01 | 84 | 1016.5 |
| 20260502035003 | 42 | 0 | 0.0 | 0.0 | 0.00 | 0.01 | 0.01 | 83 | 1016.6 |
| 20260502034503 | 42 | 0 | 0.0 | 0.0 | 0.00 | 0.01 | 0.01 | 83 | 1016.7 |
| 20260502034003 | 43 | 0 | 0.0 | 0.0 | 0.00 | 0.01 | 0.01 | 82 | 1016.7 |
| 20260502033717 | 43 | 0 | 0.0 | 0.0 | 0.00 | 0.01 | 0.01 | 81 | 1016.7 |
| 20260502033003 | 43 | 0 | 0.0 | 0.0 | 0.00 | 0.01 | 0.01 | 81 | 1016.7 |
| 20260502032503 | 44 | 0 | 0.0 | 0.0 | 0.00 | 0.01 | 0.01 | 81 | 1016.7 |
| 20260502032003 | 44 | 0 | 0.0 | 0.0 | 0.00 | 0.01 | 0.01 | 80 | 1016.7 |
| 20260502031716 | 44 | 0 | 0.0 | 0.0 | 0.00 | 0.01 | 0.01 | 80 | 1016.7 |
| 20260502031003 | 44 | 0 | 0.0 | 0.0 | 0.00 | 0.01 | 0.01 | 79 | 1016.6 |
| 20260502030503 | 45 | 0 | 0.0 | 0.0 | 0.00 | 0.01 | 0.01 | 78 | 1016.6 |
| 20260502030003 | 45 | 0 | 0.0 | 0.0 | 0.00 | 0.01 | 0.01 | 78 | 1016.6 |
| 20260502025503 | 45 | 0 | 0.0 | 0.0 | 0.00 | 0.01 | 0.01 | 77 | 1016.5 |
| 20260502025003 | 46 | 0 | 0.0 | 0.0 | 0.00 | 0.01 | 0.01 | 77 | 1016.5 |
| 20260502024503 | 46 | 0 | 0.0 | 0.0 | 0.00 | 0.01 | 0.01 | 76 | 1016.4 |
| 20260502024003 | 46 | 0 | 0.0 | 0.0 | 0.00 | 0.01 | 0.01 | 74 | 1016.4 |
| 20260502023503 | 47 | 0 | 0.0 | 0.0 | 0.00 | 0.01 | 0.01 | 74 | 1016.3 |
| 20260502023003 | 47 | 0 | 0.0 | 0.0 | 0.00 | 0.01 | 0.01 | 74 | 1016.4 |
| 20260502022718 | 47 | 0 | 0.0 | 0.0 | 0.00 | 0.01 | 0.01 | 74 | 1016.4 |
| 20260502022003 | 47 | 0 | 0.0 | 0.0 | 0.00 | 0.01 | 0.01 | 72 | 1016.4 |
| 20260502021718 | 48 | 0 | 0.0 | 0.0 | 0.00 | 0.01 | 0.01 | 71 | 1016.4 |
| 20260502021003 | 48 | 0 | 0.0 | 0.0 | 0.00 | 0.01 | 0.01 | 69 | 1016.3 |
| 20260502020503 | 49 | 0 | 0.0 | 0.0 | 0.00 | 0.01 | 0.01 | 68 | 1016.4 |
| 20260502020003 | 50 | 0 | 0.0 | 0.0 | 0.00 | 0.01 | 0.01 | 67 | 1016.2 |
| 20260502015503 | 50 | 0 | 0.0 | 0.0 | 0.00 | 0.01 | 0.01 | 66 | 1016.1 |
| 20260502015003 | 51 | 0 | 0.0 | 0.0 | 0.00 | 0.01 | 0.01 | 66 | 1016.1 |
| 20260502014503 | 51 | 0 | 0.0 | 0.0 | 0.00 | 0.01 | 0.01 | 66 | 1015.9 |
| 20260502014217 | 52 | 0 | 0.0 | 0.0 | 0.00 | 0.01 | 0.01 | 66 | 1015.8 |
| 20260502013718 | 52 | 0 | 0.0 | 0.0 | 0.00 | 0.01 | 0.01 | 65 | 1015.8 |
| 20260502013003 | 52 | 0 | 0.0 | 0.0 | 0.00 | 0.01 | 0.01 | 65 | 1015.6 |
| 20260502012503 | 52 | 0 | 0.0 | 0.0 | 0.00 | 0.01 | 0.01 | 65 | 1015.5 |
| 20260502012003 | 52 | 0 | 0.0 | 0.0 | 0.00 | 0.01 | 0.01 | 64 | 1015.3 |
| 20260502011503 | 52 | 0 | 0.0 | 0.0 | 0.00 | 0.01 | 0.01 | 63 | 1015.1 |
| 20260502011217 | 52 | 0 | 0.0 | 0.0 | 0.00 | 0.01 | 0.01 | 64 | 1015.1 |
| 20260502010503 | 53 | 0 | 0.0 | 0.0 | 0.00 | 0.01 | 0.01 | 64 | 1015.0 |